San Jose, Costa Rica

5:21 AM CST on September 21, 2017 (GMT -0600)
Juan Santamaria International

Weather History for MROC - January, 2012

Change the Weather History Date:

Tuesday, January 17, 2012

  Actual Average Record
Temperature  
Mean Temperature 73 °F -  
Max Temperature 82 °F 81 °F 86 °F (2011)
Min Temperature 64 °F 64 °F 59 °F (2001)
Cooling Degree Days 8    
Growing Degree Days 23 (Base 50)    
Moisture  
Dew Point 55 °F    
Average Humidity 53    
Maximum Humidity 73    
Minimum Humidity 22    
Precipitation  
Precipitation 0.00 in 0.01 in - ()
Sea Level Pressure  
Sea Level Pressure 30.00 in    
Wind  
Wind Speed 11 mph ()    
Max Wind Speed 20 mph    
Max Gust Speed 29 mph    
Visibility 7.6 miles    
Events      
Averages and records for this station are not official NWS values.
T = Trace of Precipitation, MM = Missing Value Source: Averaged Metar Reports

Daily Weather History Graph

Daily Weather History Graph

Search for Another Location

Airport or City:

Trip Planner

Search our weather history database for the weather conditions in past years. The results will help you decide how hot, cold, wet, or windy it might be!

Date:

Astronomy

Jan. 17, 2012 Rise Set
Actual Time 5:58 AM CST 5:35 PM CST
Civil Twilight 5:36 AM CST 5:57 PM CST
Nautical Twilight 5:10 AM CST 6:23 PM CST
Astronomical Twilight 4:44 AM CST 6:49 PM CST
Moon 12:25 AM CST (1/17) 12:24 PM CST (1/17)
Length of Visible Light 12h 21m
Length of Day
11h 36m
Waning Crescent, 35% of the Moon is Illuminated
Jan 17
Waning Crescent
Jan 23
New
Jan 30
First Quarter
Feb 7
Full
Feb 14
Last Quarter

Hourly Weather History & Observations

Time (CST) Temp. Heat Index Dew Point Humidity Pressure Visibility Wind Dir Wind Speed Gust Speed Precip Events Conditions
12:00 AM 69.8 °F - 53.6 °F 56% 30.05 in 6.2 mi ENE 12.7 mph - N/A   Unknown
1:00 AM 66.2 °F - 55.4 °F 68% 30.01 in 6.2 mi East 16.1 mph - N/A   Unknown
2:00 AM 68.0 °F - 51.8 °F 56% 30.00 in 6.2 mi East 10.4 mph - N/A   Unknown
3:00 AM 66.2 °F - 55.4 °F 68% 29.98 in 6.2 mi East 8.1 mph - N/A   Unknown
4:00 AM 66.2 °F - 55.4 °F 68% 29.99 in 6.2 mi East 8.1 mph - N/A   Unknown
5:00 AM 66.2 °F - 55.4 °F 68% 29.99 in 6.2 mi East 8.1 mph - N/A   Unknown
6:00 AM 67 °F - 54 °F 53% 29.87 in 12 mi East 10.4 mph - -   Scattered Clouds
6:00 AM 66.2 °F - 53.6 °F 64% 30.01 in - East 10.4 mph - N/A   Clear
7:00 AM 69.8 °F - 53.6 °F 56% 30.04 in 6.2 mi ESE 9.2 mph - N/A   Mostly Cloudy
8:00 AM 73.4 °F - 55.4 °F 53% 30.07 in 6.2 mi East 13.8 mph - N/A   Scattered Clouds
9:00 AM 76 °F - 57 °F 41% 29.97 in 12 mi East 12.7 mph - -   Scattered Clouds
9:00 AM 75.2 °F - 57.2 °F 53% 30.07 in 6.2 mi East 12.7 mph - N/A   Mostly Cloudy
10:00 AM 78.8 °F - 53.6 °F 42% 30.08 in 6.2 mi ENE 16.1 mph 27.6 mph N/A   Mostly Cloudy
11:00 AM 80.6 °F - 51.8 °F 37% 30.06 in - East 16.1 mph 28.8 mph N/A   Clear
12:00 PM 82 °F - 49 °F 22% 29.93 in 12 mi East 11.5 mph - -   Scattered Clouds
12:00 PM 82.4 °F - 50.0 °F 32% 30.04 in - East 11.5 mph 23.0 mph N/A   Clear
1:00 PM 80.6 °F - 48.2 °F 32% 30.02 in - ENE 15.0 mph - N/A   Clear
2:00 PM 80.6 °F - 50.0 °F 34% 30.00 in - ENE 13.8 mph - N/A   Clear
3:00 PM 81 °F - 53 °F 28% 29.83 in 12 mi ENE 17.3 mph - -   Scattered Clouds
3:00 PM 80.6 °F 80.3 °F 53.6 °F 39% 29.99 in 6.2 mi ENE 17.3 mph - N/A   Partly Cloudy
4:00 PM 75.2 °F - 59.0 °F 57% 30.00 in 6.2 mi ENE 13.8 mph - N/A   Scattered Clouds
5:00 PM 75.2 °F - 59.0 °F 57% 30.01 in 6.2 mi East 8.1 mph - N/A   Scattered Clouds
6:00 PM 71 °F - 58 °F 55% 29.92 in 12 mi ENE 10.4 mph - -  
6:00 PM 69.8 °F - 59.0 °F 68% - 6.2 mi ENE 10.4 mph - N/A   Scattered Clouds
7:00 PM 71.6 °F - 57.2 °F 60% - 6.2 mi East 12.7 mph - N/A   Partly Cloudy
8:00 PM 69.8 °F - 59.0 °F 68% - 6.2 mi East 12.7 mph - N/A   Partly Cloudy
9:00 PM 69 °F - 59 °F 61% 29.90 in 12 mi ESE 17.3 mph - -   Scattered Clouds
9:00 PM 68.0 °F - 59.0 °F 73% 30.06 in 6.2 mi ESE 17.3 mph - N/A   Partly Cloudy
10:00 PM 69.8 °F - 57.2 °F 64% 30.06 in 6.2 mi East 19.6 mph - N/A   Partly Cloudy
11:00 PM 69.8 °F - 57.2 °F 64% 30.05 in 6.2 mi East 18.4 mph - N/A   Unknown